SCP
1 1 1 1 1 1 1 1 1 1 1 1 1 1 2 1 1 1 1 1 1 1 1 1 1 1 2 2 2 2 2 1 1 1 1 1 1 1 1 1 1 1 1
1 1 1 1 1 1 1 1 1 1 1 1 1 1 1 1 1 1 1 1 1 1 1 1 1 2 2 2 2 2 2 1 1 1 1 0 0 0 0 0 1 1 1
1 1 1 1 1 1 1 1 1 1 1 1 1 1 1 1 1 1 1 1 1 1 1 1 1 2 2 2 2 2 2 1 1 1 0 0 0 0 0 0 1 1 1
1 1 1 1 1 1 1 1 1 1 1 1 1 1 1 1 1 1 1 1 1 1 1 1 1 2 2 2 2 2 2 1 1 1 0 0 0 0 0 0 0 0 0
1 1 1 2 1 1 1 1 1 1 1 1 1 1 1 1 1 1 1 1 1 1 1 1 1 2 2 2 2 2 2 1 1 1 0 0 0 0 0 0 0 0 0
1 2 2 2 1 1 0 0 1 1 1 1 1 1 1 1 1 1 1 1 1 1 1 1 1 1 2 2 2 2 1 1 1 1 0 0 0 0 0 0 0 0 0
2 2 2 2 1 1 1 1 1 1 1 1 1 1 1 1 1 1 1 1 1 1 1 1 1 1 1 1 2 2 1 1 1 1 0 0 0 0 0 0 0 0 0
3 2 2 1 1 1 1 1 1 2 2 1 1 1 1 1 1 1 1 1 1 1 1 1 1 1 1 1 2 2 1 1 1 1 0 0 0 0 0 0 0 0 0
3 2 1 1 1 1 1 1 1 2 2 1 1 1 1 1 1 1 1 1 1 1 1 1 1 1 1 1 1 1 1 1 1 0 0 0 0 1 1 0 0 0 0
3 2 1 1 1 1 1 1 1 1 1 1 1 1 1 1 1 1 1 1 1 1 1 1 1 1 1 1 1 1 1 1 1 0 0 0 1 1 1 1 1 0 0
2 2 1 1 1 1 1 1 1 1 1 1 1 2 1 1 1 1 1 1 1 1 1 1 1 1 1 1 1 0 0 0 0 0 0 1 1 1 1 1 1 0 0
2 1 1 1 1 1 1 1 1 1 1 1 2 2 1 1 1 1 1 1 1 1 1 1 1 0 1 1 1 1 0 0 0 1 1 1 1 1 1 1 1 1 1
2 1 1 1 1 1 1 1 2 2 2 1 1 1 1 1 1 1 1 1 1 1 1 1 0 0 0 0 0 1 1 0 0 1 1 1 1 1 1 1 1 1 1
2 1 1 1 2 2 2 2 2 2 2 1 1 1 1 1 1 1 1 1 1 1 1 1 1 1 0 0 0 1 1 1 0 1 1 1 1 1 1 1 1 1 1
2 2 2 2 3 3 3 3 3 2 2 1 1 1 1 1 1 1 1 1 1 1 0 1 1 1 1 0 0 1 1 1 1 1 1 1 1 1 1 1 1 1 1
2 2 2 3 4 5 5 4 3 2 2 1 1 1 1 1 1 1 1 1 1 1 1 1 1 1 1 1 1 1 1 1 1 1 1 1 1 1 1 1 1 1 1
3 3 2 3 4 6 6 5 3 3 2 2 1 2 2 2 1 1 1 1 1 1 1 1 1 1 1 1 1 1 1 1 1 1 1 1 1 1 2 2 2 2 1
3 3 3 3 4 6 8 6 4 3 2 2 1 2 2 2 2 1 1 1 1 1 1 1 1 1 1 1 1 1 1 1 1 1 1 1 1 1 1 2 2 2 2
3 3 3 3 4 6 7 6 3 2 2 2 1 2 1 1 1 1 1 1 1 1 1 1 1 1 1 1 1 1 1 1 1 1 1 1 1 1 1 1 1 1 1
4 3 4 4 5 5 5 4 3 2 2 1 2 2 2 1 2 2 1 1 1 1 1 1 1 1 2 1 1 1 1 1 1 1 1 1 1 1 1 1 1 1 1
4 4 4 5 5 4 4 3 3 2 2 2 2 2 2 2 2 2 2 2 2 2 1 1 2 1 1 1 1 1 1 1 1 1 1 1 1 1 1 2 2 1 1
4 4 4 5 5 4 4 4 3 2 2 2 2 2 2 2 2 2 3 3 2 2 1 1 2 2 2 1 1 1 1 1 1 1 1 1 1 1 1 2 2 2 2
5 4 4 5 5 4 3 4 3 2 2 2 2 2 2 2 2 2 3 3 2 2 2 2 2 2 2 2 1 1 1 1 1 1 1 1 2 2 1 1 1 2 2
5 5 5 6 5 4 3 3 3 3 3 3 3 3 3 2 2 2 2 3 3 2 2 2 3 3 3 2 2 2 1 1 1 1 1 1 1 2 2 1 1 1 2
6 7 8 9 8 6 5 4 4 3 3 3 3 3 3 2 2 2 2 2 3 3 3 3 3 3 3 3 2 2 2 2 1 1 1 1 1 1 1 1 1 1 2
6 7 10 12 11 8 6 5 5 4 4 4 4 4 3 3 2 2 2 2 3 3 3 3 3 3 3 3 2 2 2 2 2 1 1 1 1 1 1 1 1 2 2
Wind_Speed
9 10 12 11 11 12 12 12 13 13 13 13 14 15 15 16 17 17 17 17 17 17 17 16 16 15 14 14 14 13 13 12 12 13 13 13 13 12 11 11 11 10 13
11 10 13 12 12 12 12 12 13 13 13 14 14 15 15 16 17 17 16 16 16 17 17 16 16 15 15 14 13 13 12 11 11 12 13 12 12 11 9 9 11 9 12
12 11 12 12 12 12 12 12 12 13 13 14 14 15 15 16 16 16 16 15 16 16 16 16 15 15 14 13 13 12 11 11 11 12 11 8 9 11 11 12 13 12 11
12 11 11 12 12 13 12 12 12 13 14 14 14 14 15 15 15 16 16 15 15 16 16 15 15 14 13 13 12 11 10 9 9 9 6 7 8 11 11 12 12 11 10
13 12 12 12 12 12 12 11 12 13 14 14 14 14 14 14 15 15 15 15 15 15 15 15 14 13 13 12 10 9 7 7 6 5 4 7 7 10 11 11 11 10 10
14 13 12 12 12 12 11 11 11 12 14 14 13 13 14 14 14 14 14 14 14 14 14 14 13 13 12 10 8 7 5 5 4 3 5 8 7 10 11 10 10 10 9
14 13 13 12 12 12 11 11 10 12 13 14 13 13 13 13 14 14 13 13 13 13 13 13 12 11 10 9 7 6 5 4 4 3 6 7 8 10 10 10 9 9 9
14 13 12 13 13 12 11 11 11 13 13 13 13 13 13 13 13 13 13 13 12 13 12 12 11 10 9 8 7 5 5 5 4 5 7 8 10 11 10 9 9 9 8
13 13 11 11 11 12 12 12 12 13 12 12 13 13 13 12 12 12 12 12 12 12 11 11 10 10 8 7 6 5 5 6 4 2 7 7 11 11 10 10 9 9 8
10 10 10 11 11 10 10 11 12 12 12 12 12 12 12 13 12 12 11 12 12 11 11 10 9 8 7 7 6 6 6 5 4 3 5 8 12 12 11 10 9 9 8
8 7 8 10 10 11 11 12 11 11 11 11 10 11 9 7 8 9 11 12 12 11 11 10 9 8 7 7 7 6 5 3 2 3 5 11 12 12 11 10 9 9 8
8 6 5 7 8 8 9 9 6 7 7 6 6 7 5 4 5 8 11 13 12 11 10 10 9 9 7 4 6 7 3 5 2 4 6 14 12 12 11 10 9 9 9
9 6 6 5 6 6 6 7 4 4 5 5 6 6 4 4 5 6 5 7 7 9 6 7 7 5 5 3 3 4 4 3 1 3 8 13 12 12 11 10 10 10 9
9 7 6 6 5 4 4 4 5 4 4 4 5 5 5 3 3 4 3 5 5 4 4 4 3 4 3 3 3 3 3 1 2 3 7 13 12 12 11 11 10 10 10
9 8 7 7 5 4 3 1 4 4 4 5 5 4 4 4 4 5 3 3 4 4 4 3 3 3 3 3 3 3 2 2 2 4 5 12 12 12 12 11 11 11 11
9 8 8 7 6 4 3 1 2 4 4 4 4 5 4 3 4 4 4 3 3 3 4 3 3 3 3 3 3 3 3 2 2 4 5 8 12 12 11 12 12 11 11
9 8 8 8 7 5 4 3 3 3 4 4 4 5 4 4 4 3 3 3 2 3 3 2 2 2 3 3 3 3 2 2 2 3 4 5 7 11 11 12 12 12 12
9 8 7 7 8 6 4 3 2 2 4 4 4 5 5 4 4 3 3 3 3 2 3 3 2 2 2 2 2 2 2 2 3 3 4 5 5 6 10 13 12 13 13
9 8 6 5 8 7 5 3 2 2 2 3 3 4 5 5 5 4 3 3 3 2 2 4 3 2 2 2 2 2 2 2 3 4 4 5 5 5 6 10 13 13 14
10 9 8 6 6 6 5 3 2 3 3 2 3 3 5 4 5 4 3 4 3 2 2 2 1 2 1 2 3 2 2 3 3 3 4 4 4 6 7 7 8 9 14
11 9 8 7 7 5 4 4 4 3 3 3 3 5 5 5 5 4 3 4 3 2 3 3 2 3 2 2 2 2 2 3 3 3 3 3 4 5 5 6 6 5 6
11 10 9 8 8 6 4 3 3 3 3 3 2 4 5 4 4 5 4 4 4 3 3 3 2 2 2 3 2 1 1 1 2 4 3 3 3 3 4 6 6 6 5
13 12 10 9 9 8 6 5 4 3 2 3 3 4 4 5 5 3 4 4 3 4 4 4 3 3 2 2 2 2 1 1 1 2 3 2 2 2 3 3 5 5 6
13 13 10 9 9 8 6 6 6 5 4 4 3 4 4 4 5 5 4 4 3 3 4 5 4 3 3 2 1 1 2 1 1 1 1 2 3 3 3 3 3 4 4
14 13 11 10 8 8 6 5 5 4 4 3 4 4 4 4 5 5 5 4 4 3 3 3 3 3 2 2 2 2 2 2 3 2 2 1 1 2 3 2 2 2 4
13 13 12 11 9 8 7 6 5 4 3 4 4 5 5 4 4 5 5 4 4 3 3 3 3 4 3 2 1 2 2 2 2 2 2 2 2 2 2 2 2 2 3
Wind_Direction
84 86 87 86 89 88 87 90 98 104 107 110 111 110 110 112 114 114 115 118 120 120 119 119 119 116 113 109 108 106 103 103 103 102 103 104 106 108 111 116 113 102 108
92 89 89 87 93 93 91 92 97 102 106 111 114 113 112 113 116 117 116 117 120 122 122 122 119 117 115 114 112 110 109 111 115 114 113 110 110 107 106 103 99 110 111
95 94 91 88 92 93 91 93 95 100 106 112 113 113 114 115 117 118 119 119 122 122 123 123 121 120 118 117 116 118 120 123 127 129 129 121 115 110 106 102 105 112 112
100 96 93 95 95 95 95 97 100 102 106 111 112 113 117 118 119 120 121 121 123 123 124 124 123 122 121 120 121 126 132 138 145 151 147 128 119 115 113 113 116 120 120
100 96 98 100 99 98 100 102 103 104 109 112 113 114 116 118 120 122 123 124 124 124 124 125 125 125 124 123 125 132 140 150 162 175 133 112 107 122 121 123 125 128 129
105 103 103 101 101 102 102 103 106 110 113 115 117 119 120 121 122 124 126 125 126 126 126 127 128 128 127 128 134 142 156 173 191 181 128 121 120 133 132 132 133 134 134
110 109 110 106 106 106 105 107 111 116 117 119 121 123 124 126 128 128 128 128 130 131 132 131 131 133 134 138 144 159 184 204 224 163 124 118 126 139 141 141 143 141 139
111 110 116 114 114 114 114 113 113 118 119 124 126 128 128 130 133 133 133 133 133 135 136 136 137 139 141 145 155 179 211 232 218 148 128 122 136 143 143 143 144 144 143
112 116 123 124 121 123 123 121 117 118 121 128 132 132 134 136 138 140 140 139 138 139 140 140 144 145 145 153 169 196 226 248 281 155 131 127 142 145 146 148 150 149 148
111 117 127 132 133 137 132 131 130 130 131 129 131 137 142 144 146 147 147 145 144 146 148 148 150 154 160 170 182 206 233 260 255 157 121 137 148 150 153 155 157 155 155
109 117 128 128 141 144 139 138 143 141 141 140 139 143 147 154 153 156 148 150 152 155 157 159 162 169 177 189 200 218 235 245 216 132 124 143 152 155 160 164 165 164 165
125 127 118 127 140 142 134 137 150 149 147 157 149 154 161 151 153 149 147 154 156 160 164 169 175 184 193 193 198 211 227 235 210 133 137 152 157 161 166 171 173 174 176
132 134 129 123 122 127 127 144 151 142 147 154 147 152 145 142 144 139 152 155 160 166 173 170 184 199 197 187 182 191 216 231 163 129 147 158 161 166 170 175 181 183 184
136 137 133 117 107 100 117 133 142 139 148 143 147 161 148 150 140 140 148 154 164 171 170 170 187 199 182 177 195 202 207 208 163 129 152 162 167 172 176 180 187 190 191
136 133 122 110 102 97 90 137 140 138 145 141 147 157 153 154 146 143 152 158 174 163 165 185 186 185 170 194 213 203 207 203 162 142 150 170 173 179 183 187 193 196 198
136 136 130 127 128 130 135 174 136 140 134 132 142 151 158 148 140 148 157 161 172 160 171 181 177 171 180 197 217 199 200 196 159 151 156 175 183 186 189 193 198 201 205
140 138 139 145 143 150 162 180 161 154 141 143 142 144 152 153 143 152 151 157 170 167 159 171 179 173 192 201 206 208 204 198 178 175 164 176 185 194 197 201 204 206 209
145 142 156 159 148 155 170 179 174 152 139 140 141 143 153 155 151 158 158 165 169 167 163 175 186 188 198 210 204 219 199 185 197 192 188 187 181 188 199 207 209 210 212
144 147 156 155 148 160 170 176 177 141 133 144 141 146 157 165 162 167 168 162 172 177 183 196 178 179 193 210 218 220 212 197 200 213 207 197 185 184 180 200 209 211 213
148 152 157 158 148 160 166 167 173 155 156 161 150 149 156 171 173 174 171 173 183 175 183 203 160 173 194 221 237 225 218 207 201 212 218 207 188 192 187 186 196 212 216
156 158 163 167 157 166 172 172 175 176 178 172 171 161 164 181 177 178 171 167 181 184 185 185 175 201 203 210 233 245 242 217 212 210 215 214 200 197 189 175 184 194 205
161 162 167 171 167 175 174 172 178 172 182 175 171 154 169 183 177 188 176 185 184 183 184 189 187 201 221 204 207 220 257 271 248 217 205 214 207 192 200 192 188 192 196
167 170 175 172 169 181 174 176 178 167 186 172 170 167 182 182 181 191 175 202 183 184 180 191 192 197 217 225 210 195 208 227 248 256 215 202 191 202 215 196 189 185 190
172 173 169 166 167 173 176 181 185 182 188 178 176 172 179 188 189 185 183 195 197 206 174 194 188 202 209 223 227 209 226 212 207 257 264 214 198 206 227 219 188 178 182
173 171 167 161 165 168 180 187 193 195 186 173 171 165 180 194 198 191 184 187 200 208 192 200 177 197 208 217 217 207 222 224 225 220 245 252 229 204 212 212 191 176 179
173 169 166 163 168 170 180 184 186 197 185 175 173 170 187 192 200 198 189 190 202 208 202 197 195 203 216 229 241 245 226 221 224 216 228 245 246 231 206 191 182 189 187